User: anonymous   Login
Location: Unspecified
(0.0000°N, 0.0000°E)
Time: 16:07:27
(UTC+00:00)
Language:

OBJECT H - Orbit

View from above orbital plane
View from above orbital plane
View from above satellite
View from above satellite

Ground track
Ground track

The orbit data is extracted from the following two-line orbital elements,

1 42832U 17042H   19078.67344742  .00000180  00000-0  23575-4 0  9990
2 42832  97.5755 335.4709 0014072   7.6032 352.5398 14.91113097 91384
Epoch (UTC): 19 March 2019 16:09:45
Eccentricity: 0.0014072
inclination: 97.5755°
perigee height: 584 km
apogee height: 604 km
right ascension of ascending node: 335.4709°
argument of perigee: 7.6032°
revolutions per day: 14.91113097
mean anomaly at epoch: 352.5398°
orbit number at epoch: 9138

The dashed part of the orbit path shows where the satellite is in the earth's shadow,  

DLR